Flag for Germany Weather past 2 weeks in Memmingen, Bavaria, Germany

Now
73 °F

Overcast.


Feels Like: 77 °F
Forecast: 50 / 60 °F
Wind: 2 mph from South

Location: Kempten

Current Time: May 5, 2015 at 12:17:59 PM

Latest Report: May 5, 2015 at 12:00 PM


Visibility: 28 mi

Pressure: 29.68 "Hg

Humidity: 53%

Dew point: 54 °F

Location of MemmingenLocation

Historic Weather in Memmingen — Graph

°F

Memmingen temperature yesterday

Maximum temperature yesterday: 67 °F (at 6:00 PM)
Minimum temperature yesterday: 55 °F (at 7:00 AM)
Average temperature yesterday: 60 °F

Past Weeks' High & Low Weather Summary

 TemperatureHumidityPressure
High68 °F (Apr 22, 3:00 PM)99% (Apr 29, 6:00 AM)30.44 "Hg (Apr 29, 6:00 AM)
Low29 °F (Apr 24, 7:00 AM)18% (Apr 22, 4:00 PM)29.41 "Hg (Apr 27, 6:00 PM)
Average51 °F72%29.95 "Hg
* Reported Apr 20 10:00 AM — May 5 10:00 AM, Memmingen, Weather by CustomWeather, © 2015

Note: Actual official high and low records may vary slightly from our data, if they occured in-between our weather recording intervals... More about our weather records

Advertising

Memmingen weather history for previous 24 hours

 ConditionsComfort  
Time TempWeatherWind HumidityBarometerVisibility
10:00 AM
Tue, May 5
68 °FOvercast.2 mph59%29.65 "Hg34 mi
9:00 AM65 °FOvercast.2 mph63%29.65 "Hg34 mi
8:00 AM65 °FOvercast.3 mph55%29.65 "Hg25 mi
7:00 AM59 °FOvercast.2 mph72%29.67 "Hg43 mi
6:00 AM57 °FOvercast.3 mph80%29.68 "Hg40 mi
4:00 AM54 °FOvercast.3 mph91%29.72 "Hg37 mi
3:00 AM54 °FOvercast.3 mph94%29.72 "Hg37 mi
2:00 AM55 °FPassing clouds.2 mph94%29.73 "Hg28 mi
1:00 AM57 °FOvercast.2 mph94%29.75 "Hg31 mi
12:00 AM58 °FOvercast.1 mph93%29.76 "Hg31 mi
10:00 PM
Mon, May 4
61 °FOvercast.1 mph86%29.78 "Hg43 mi
9:00 PM62 °FOvercast.1 mph81%29.78 "Hg43 mi
8:00 PM64 °FOvercast.2 mph76%29.78 "Hg43 mi
7:00 PM65 °FOvercast.2 mph72%29.80 "Hg43 mi
6:00 PM67 °FOvercast.2 mph67%29.80 "Hg37 mi
4:00 PM65 °FOvercast.1 mph71%29.84 "Hg15 mi
3:00 PM64 °FOvercast.2 mph75%29.86 "Hg40 mi
2:00 PM64 °FLight rain. Overcast.2 mph69%29.86 "Hg19 mi
1:00 PM65 °FPassing clouds.2 mph67%29.84 "Hg37 mi
12:00 PM65 °FOvercast.3 mph60%29.85 "Hg28 mi
Weather by CustomWeather, © 2015

See weather overviewHow to use our weather pages